Time,TemperatureF,DewpointF,PressureIn,WindDirection,WindDirectionDegrees,WindSpeedMPH,WindSpeedGustMPH,Humidity,HourlyPrecipIn,Conditions,Clouds,dailyrainin,SoftwareType,DateUTC
2013-01-29 00:00:00,43.2,35.4,30.02,ENE,59,9.0,26.0,74,0.00,RA,,0.00,WeatherDisplay:10.37,2013-01-28 23:00:00,
2013-01-29 00:30:00,42.8,35.8,30.02,East,79,8.0,23.0,76,0.00,CLR,,0.00,WeatherDisplay:10.37,2013-01-28 23:30:00,
2013-01-29 01:00:00,42.7,36.0,30.03,ENE,71,8.0,26.0,77,0.00,CLR,,0.00,WeatherDisplay:10.37,2013-01-29 00:00:00,
2013-01-29 01:30:00,42.6,35.9,30.04,ENE,78,12.0,21.0,77,0.00,CLR,,0.00,WeatherDisplay:10.37,2013-01-29 00:30:00,
2013-01-29 02:00:00,42.5,35.8,30.03,ENE,73,13.0,28.0,77,0.00,CLR,,0.00,WeatherDisplay:10.37,2013-01-29 01:00:00,
2013-01-29 02:30:00,43.1,35.7,30.04,ENE,60,14.0,29.0,75,0.00,,,0.00,WeatherDisplay:10.37,2013-01-29 01:30:00,
2013-01-29 03:00:00,43.2,35.5,30.04,ENE,69,12.0,31.0,74,0.00,CLR,,0.00,WeatherDisplay:10.37,2013-01-29 02:00:00,
2013-01-29 03:30:00,43.0,35.6,30.05,ENE,76,6.0,24.0,75,0.00,CLR,,0.00,WeatherDisplay:10.37,2013-01-29 02:30:00,
2013-01-29 04:00:00,43.2,35.5,30.06,East,96,7.0,22.0,74,0.00,CLR,,0.00,WeatherDisplay:10.37,2013-01-29 03:00:00,
2013-01-29 04:30:00,42.8,36.0,30.08,East,99,13.0,23.0,77,0.00,CLR,,0.00,WeatherDisplay:10.37,2013-01-29 03:30:00,
2013-01-29 05:00:00,43.1,36.4,30.10,NNW,344,3.0,24.0,77,0.00,CLR,,0.00,WeatherDisplay:10.37,2013-01-29 04:00:00,
2013-01-29 05:30:00,43.2,37.1,30.10,NNE,21,1.0,12.0,79,0.00,CLR,,0.00,WeatherDisplay:10.37,2013-01-29 04:30:00,
2013-01-29 06:30:00,43.7,37.6,30.12,SE,135,9.0,18.0,79,0.00,CLR,,0.00,WeatherDisplay:10.37,2013-01-29 05:30:00,
2013-01-29 07:00:00,43.5,37.4,30.13,ENE,67,6.0,15.0,79,0.00,CLR,,0.00,WeatherDisplay:10.37,2013-01-29 06:00:00,
2013-01-29 07:30:00,43.7,37.3,30.15,ENE,66,7.0,15.0,78,0.00,CLR,,0.00,WeatherDisplay:10.37,2013-01-29 06:30:00,
2013-01-29 08:00:00,44.5,37.8,30.15,ENE,68,10.0,30.0,77,0.00,CLR,,0.00,WeatherDisplay:10.37,2013-01-29 07:00:00,
2013-01-29 08:30:00,45.0,36.9,30.19,ENE,61,10.0,21.0,73,0.00,CLR,,0.00,WeatherDisplay:10.37,2013-01-29 07:30:00,
2013-01-29 09:00:00,47.0,35.5,30.19,ESE,105,8.0,23.0,64,0.00,CLR,,0.00,WeatherDisplay:10.37,2013-01-29 08:00:00,
2013-01-29 09:30:00,45.4,37.6,30.20,SE,139,7.0,20.0,74,0.00,CLR,,0.00,WeatherDisplay:10.37,2013-01-29 08:30:00,
2013-01-29 10:00:00,46.7,37.4,30.20,SSE,162,2.0,21.0,70,0.00,CLR,,0.00,WeatherDisplay:10.37,2013-01-29 09:00:00,
2013-01-29 10:30:00,47.1,39.2,30.21,ESE,115,1.0,16.0,74,0.00,CLR,,0.00,WeatherDisplay:10.37,2013-01-29 09:30:00,
2013-01-29 11:00:00,48.1,38.8,30.20,SE,141,3.0,15.0,70,0.00,CLR,,0.00,WeatherDisplay:10.37,2013-01-29 10:00:00,
2013-01-29 11:30:00,48.7,39.0,30.19,ESE,118,7.0,15.0,69,0.00,CLR,,0.00,WeatherDisplay:10.37,2013-01-29 10:30:00,
2013-01-29 12:00:00,49.9,38.2,30.20,South,190,2.0,16.0,64,0.00,CLR,,0.00,WeatherDisplay:10.37,2013-01-29 11:00:00,
2013-01-29 12:30:00,51.0,40.1,30.21,SE,138,2.0,8.0,66,0.00,CLR,,0.00,WeatherDisplay:10.37,2013-01-29 11:30:00,
2013-01-29 13:00:00,50.2,40.8,30.18,SSE,161,5.0,10.0,70,0.00,CLR,,0.00,WeatherDisplay:10.37,2013-01-29 12:00:00,
2013-01-29 13:30:00,51.7,40.7,30.18,SE,126,1.0,13.0,66,0.00,CLR,,0.00,WeatherDisplay:10.37,2013-01-29 12:30:00,
2013-01-29 14:00:00,50.4,41.0,30.20,SSE,165,2.0,9.0,70,0.00,CLR,,0.00,WeatherDisplay:10.37,2013-01-29 13:00:00,
2013-01-29 14:30:00,50.5,39.9,30.20,SE,146,3.0,12.0,67,0.00,CLR,,0.00,WeatherDisplay:10.37,2013-01-29 13:30:00,
2013-01-29 15:00:00,50.1,39.6,30.19,SSE,151,2.0,10.0,67,0.00,CLR,,0.00,WeatherDisplay:10.37,2013-01-29 14:00:00,
2013-01-29 15:30:00,49.8,40.0,30.19,SSE,161,1.0,9.0,69,0.00,CLR,,0.00,WeatherDisplay:10.37,2013-01-29 14:30:00,
2013-01-29 16:00:00,49.5,39.7,30.18,SSE,163,2.0,7.0,69,0.00,CLR,,0.00,WeatherDisplay:10.37,2013-01-29 15:00:00,
2013-01-29 16:30:00,48.4,38.7,30.18,SSE,153,1.0,5.0,69,0.00,CLR,,0.00,WeatherDisplay:10.37,2013-01-29 15:30:00,
2013-01-29 17:00:00,47.9,38.2,30.19,SSE,149,0.0,4.0,69,0.00,CLR,,0.00,WeatherDisplay:10.37,2013-01-29 16:00:00,
2013-01-29 17:30:00,45.3,38.1,30.21,East,82,0.0,3.0,76,0.00,CLR,,0.00,WeatherDisplay:10.37,2013-01-29 16:30:00,
2013-01-29 18:00:00,42.8,37.7,30.21,NE,54,0.0,1.0,82,0.00,CLR,,0.00,WeatherDisplay:10.37,2013-01-29 17:00:00,
2013-01-29 18:30:00,41.8,38.0,30.21,ENE,64,0.0,4.0,86,0.00,CLR,,0.00,WeatherDisplay:10.37,2013-01-29 17:30:00,
2013-01-29 19:00:00,42.0,37.8,30.20,ENE,71,1.0,5.0,85,0.00,CLR,,0.00,WeatherDisplay:10.37,2013-01-29 18:00:00,
2013-01-29 19:30:00,40.3,36.5,30.20,ENE,71,0.0,3.0,86,0.00,CLR,,0.00,WeatherDisplay:10.37,2013-01-29 18:30:00,
2013-01-29 20:00:00,40.6,37.3,30.21,ENE,71,0.0,2.0,88,0.00,CLR,,0.00,WeatherDisplay:10.37,2013-01-29 19:00:00,
2013-01-29 20:30:00,41.4,38.7,30.22,ENE,71,0.0,2.0,90,0.00,CLR,,0.00,WeatherDisplay:10.37,2013-01-29 19:30:00,
2013-01-29 21:00:00,42.7,40.0,30.23,ENE,71,0.0,3.0,90,0.00,CLR,,0.00,WeatherDisplay:10.37,2013-01-29 20:00:00,
2013-01-29 21:30:00,41.9,38.9,30.21,ENE,71,0.0,1.0,89,0.00,CLR,,0.00,WeatherDisplay:10.37,2013-01-29 20:30:00,
2013-01-29 22:00:00,41.5,38.5,30.20,ENE,71,0.0,1.0,89,0.00,CLR,,0.00,WeatherDisplay:10.37,2013-01-29 21:00:00,
2013-01-29 22:30:00,41.4,38.1,30.22,ENE,71,0.0,1.0,88,0.00,CLR,,0.00,WeatherDisplay:10.37,2013-01-29 21:30:00,
2013-01-29 23:00:00,42.0,38.7,30.22,ENE,71,0.0,2.0,88,0.00,CLR,,0.00,WeatherDisplay:10.37,2013-01-29 22:00:00,
2013-01-29 23:30:00,42.6,39.3,30.23,ENE,71,0.0,2.0,88,0.00,CLR,,0.00,WeatherDisplay:10.37,2013-01-29 22:30:00,